Tracking 30009 objects as of 7-Dec-2024
HD Live streaming from Space Station
objects crossing your sky now

STARLINK-31961

Track STARLINK-31961 now!
10-day predictions
STARLINK-31961 is classified as:


NORAD ID: 59894
Int'l Code: 2024-100K
Perigee: 449.1 km
Apogee: 453.4 km
Inclination: 43.0 °
Period: 93.5 minutes
Semi major axis: 6822 km
RCS: Unknown
Launch date: May 28, 2024
Source: United States (US)
Launch site: AIR FORCE EASTERN TEST RANGE (AFETR)
Your satellite tracking list
Your tracking list is empty




NASA's NSSDC Master Catalog

Two Line Element Set (TLE):
1 59894U 24100K   24341.99649467  .00007228  00000-0  18026-3 0  9999
2 59894  43.0061 203.6211 0003161 250.7725 109.2790 15.40676102 30985
Source of the keplerian elements: AFSPC